AFL232 UUEE-VIDP

Flight info

Callsign AFL232
Flight time N/A
Altitude 35000
Route N0490F350 TOGMO M56 DENUD M161 MILSO M875 TAPIS L509 ASARI A466 ELKUX
Aircraft B77W/H-VGDW/C

Departure

Time 2026-05-06 08:57
Airport Sheremetyevo International Airport (UUEE)

Arrival

Time N/A
Airport Indira Gandhi International Airport (VIDP)
Time Latitude Longitude Altitude Speed Heading
2026-05-06 08:13 55.97933 37.41235 649 ft 0 kts 255°
2026-05-06 08:44 55.97935 37.41246 650 ft 4 kts 260°
2026-05-06 08:44 55.97937 37.41280 648 ft 3 kts 255°
2026-05-06 08:44 55.97946 37.41316 646 ft 4 kts 225°
2026-05-06 08:45 55.97963 37.41337 649 ft 4 kts 191°
2026-05-06 08:45 55.97984 37.41338 649 ft 2 kts 165°
2026-05-06 08:45 55.97985 37.41338 648 ft 0 kts 165°
2026-05-06 08:48 55.97981 37.41339 650 ft 2 kts 165°
2026-05-06 08:48 55.97948 37.41355 644 ft 9 kts 165°
2026-05-06 08:49 55.97866 37.41394 647 ft 16 kts 165°
2026-05-06 08:49 55.97760 37.41445 647 ft 16 kts 165°
2026-05-06 08:49 55.97693 37.41487 647 ft 9 kts 143°
2026-05-06 08:49 55.97663 37.41564 648 ft 7 kts 137°
2026-05-06 08:50 55.97625 37.41626 650 ft 8 kts 124°
2026-05-06 08:50 55.97617 37.41719 644 ft 8 kts 91°
2026-05-06 08:50 55.97629 37.41812 645 ft 8 kts 75°
2026-05-06 08:50 55.97643 37.41907 648 ft 9 kts 74°
2026-05-06 08:51 55.97660 37.42024 647 ft 11 kts 75°
2026-05-06 08:51 55.97679 37.42156 645 ft 11 kts 75°
2026-05-06 08:51 55.97698 37.42288 646 ft 11 kts 76°
2026-05-06 08:51 55.97717 37.42420 647 ft 11 kts 75°
2026-05-06 08:52 55.97738 37.42552 647 ft 11 kts 72°
2026-05-06 08:52 55.97759 37.42683 646 ft 11 kts 75°
2026-05-06 08:52 55.97778 37.42813 647 ft 11 kts 75°
2026-05-06 08:52 55.97798 37.42945 644 ft 11 kts 75°
2026-05-06 08:53 55.97818 37.43076 644 ft 11 kts 75°
2026-05-06 08:53 55.97838 37.43208 649 ft 11 kts 75°
2026-05-06 08:53 55.97858 37.43345 646 ft 13 kts 75°
2026-05-06 08:53 55.97886 37.43532 644 ft 18 kts 75°
2026-05-06 08:54 55.97921 37.43766 647 ft 20 kts 75°
2026-05-06 08:54 55.97946 37.43932 648 ft 10 kts 75°
2026-05-06 08:54 55.97936 37.44014 648 ft 6 kts 137°
2026-05-06 08:54 55.97921 37.44028 648 ft 0 kts 159°
2026-05-06 08:55 55.97895 37.44045 649 ft 8 kts 160°
2026-05-06 08:55 55.97839 37.44076 648 ft 9 kts 164°
2026-05-06 08:55 55.97790 37.44044 647 ft 5 kts 242°
2026-05-06 08:56 55.97790 37.44041 646 ft 0 kts 246°
2026-05-06 08:56 55.97779 37.43991 647 ft 24 kts 252°
2026-05-06 08:56 55.97667 37.43280 645 ft 95 kts 254°
2026-05-06 08:56 55.97442 37.41766 645 ft 155 kts 255°
2026-05-06 08:57 55.97130 37.39648 721 ft 190 kts 255°
2026-05-06 08:57 55.96779 37.37379 1229 ft 193 kts 253°
2026-05-06 08:57 55.96415 37.35129 2106 ft 182 kts 257°
2026-05-06 08:57 55.96071 37.32954 2763 ft 185 kts 255°
2026-05-06 08:58 55.95710 37.30642 3100 ft 201 kts 255°
2026-05-06 08:58 55.95315 37.28117 3438 ft 222 kts 255°
2026-05-06 08:58 55.94873 37.25329 3767 ft 240 kts 255°
2026-05-06 08:58 55.94424 37.22476 4536 ft 243 kts 255°
2026-05-06 08:59 55.93967 37.19561 5278 ft 246 kts 255°
2026-05-06 08:59 55.93502 37.16611 6087 ft 248 kts 255°
2026-05-06 08:59 55.93038 37.13664 6881 ft 246 kts 255°
2026-05-06 08:59 55.92569 37.10712 7603 ft 248 kts 255°
2026-05-06 09:00 55.92099 37.07748 8353 ft 248 kts 256°
2026-05-06 09:00 55.91675 37.04769 9055 ft 248 kts 264°
2026-05-06 09:00 55.91883 37.01728 9669 ft 251 kts 287°
2026-05-06 09:00 55.92696 36.98928 10008 ft 259 kts 301°
2026-05-06 09:01 55.94021 36.96649 10018 ft 269 kts 317°
2026-05-06 09:01 55.95575 36.94744 10003 ft 272 kts 320°
2026-05-06 09:01 55.97155 36.92910 10002 ft 270 kts 325°
2026-05-06 09:01 55.98986 36.91943 10010 ft 286 kts 349°
2026-05-06 09:02 56.01013 36.92407 10247 ft 303 kts 11°
2026-05-06 09:02 56.02952 36.94088 10843 ft 316 kts 26°
2026-05-06 09:02 56.04766 36.96275 11558 ft 320 kts 29°
2026-05-06 09:02 56.06643 36.98589 12013 ft 335 kts 29°
2026-05-06 09:03 56.08608 37.00948 12681 ft 343 kts 28°
2026-05-06 09:03 56.10586 37.03393 13413 ft 349 kts 36°
2026-05-06 09:03 56.12131 37.06870 14026 ft 366 kts 63°
2026-05-06 09:03 56.12902 37.11237 14771 ft 368 kts 76°
2026-05-06 09:04 56.13492 37.15748 15475 ft 373 kts 75°
2026-05-06 09:04 56.14108 37.20299 16240 ft 377 kts 75°
2026-05-06 09:04 56.14695 37.24880 16983 ft 378 kts 83°
2026-05-06 09:04 56.14568 37.29599 17558 ft 384 kts 108°
2026-05-06 09:05 56.13455 37.33901 18288 ft 379 kts 130°
2026-05-06 09:05 56.11651 37.37280 18975 ft 374 kts 148°
2026-05-06 09:05 56.09448 37.39529 19589 ft 369 kts 160°
2026-05-06 09:05 56.07090 37.41447 20189 ft 374 kts 161°
2026-05-06 09:06 56.04699 37.43351 20853 ft 378 kts 161°
2026-05-06 09:06 56.02296 37.45307 21552 ft 381 kts 160°
2026-05-06 09:06 55.99878 37.47315 22237 ft 384 kts 160°
2026-05-06 09:06 55.97446 37.49362 22888 ft 387 kts 158°
2026-05-06 09:07 55.95228 37.52192 23325 ft 404 kts 135°
2026-05-06 09:07 55.93667 37.56444 23828 ft 416 kts 114°
2026-05-06 09:07 55.93112 37.59732 24199 ft 417 kts 102°
2026-05-06 09:07 55.92450 37.66522 24895 ft 422 kts 101°
2026-05-06 09:08 55.91925 37.71701 25426 ft 425 kts 102°
2026-05-06 09:08 55.91068 37.76719 25903 ft 423 kts 120°
2026-05-06 09:08 55.89592 37.81267 26357 ft 425 kts 124°
2026-05-06 09:08 55.88571 37.84259 26703 ft 428 kts 123°
2026-05-06 09:09 55.87069 37.88856 27247 ft 431 kts 122°
2026-05-06 09:09 55.85592 37.93514 27787 ft 430 kts 124°
2026-05-06 09:09 55.83706 37.97587 28117 ft 427 kts 146°
2026-05-06 09:09 55.81162 38.00223 28547 ft 420 kts 165°
2026-05-06 09:10 55.78566 38.01293 29016 ft 413 kts 180°
2026-05-06 09:10 55.75734 38.01079 29530 ft 406 kts 196°
2026-05-06 09:10 55.73060 37.99607 29977 ft 402 kts 208°
2026-05-06 09:10 55.70675 37.97078 30331 ft 398 kts 224°
2026-05-06 09:11 55.68705 37.93647 30686 ft 398 kts 229°
2026-05-06 09:11 55.66679 37.90295 30957 ft 403 kts 217°
2026-05-06 09:11 55.64159 37.88123 31202 ft 416 kts 200°
2026-05-06 09:11 55.61251 37.87230 31266 ft 434 kts 183°
2026-05-06 09:12 55.58200 37.87655 31374 ft 445 kts 178°
2026-05-06 09:12 55.51997 37.88913 31530 ft 462 kts 178°
2026-05-06 09:13 55.45492 37.90066 31736 ft 476 kts 178°
2026-05-06 09:13 55.42186 37.90606 31942 ft 479 kts 178°
2026-05-06 09:13 55.38894 37.91596 32149 ft 485 kts 166°
2026-05-06 09:13 55.35833 37.94198 32428 ft 491 kts 148°
2026-05-06 09:14 55.33042 37.97661 32736 ft 491 kts 148°
2026-05-06 09:14 55.30252 38.01106 33074 ft 490 kts 148°
2026-05-06 09:14 55.27386 38.04582 33524 ft 488 kts 149°
2026-05-06 09:14 55.24618 38.07885 33910 ft 486 kts 149°
2026-05-06 09:15 55.21855 38.11141 34182 ft 485 kts 149°
2026-05-06 09:15 55.19046 38.14425 34434 ft 485 kts 149°
2026-05-06 09:15 55.16240 38.17692 34689 ft 485 kts 149°
2026-05-06 09:16 55.10578 38.24268 34830 ft 490 kts 149°
2026-05-06 09:16 55.04931 38.30820 34839 ft 484 kts 149°
2026-05-06 09:17 54.99332 38.37298 34859 ft 482 kts 149°
2026-05-06 09:17 54.93743 38.43740 34850 ft 481 kts 149°
2026-05-06 09:18 54.88156 38.50157 34858 ft 481 kts 149°
2026-05-06 09:18 54.82563 38.56561 34860 ft 482 kts 149°
2026-05-06 09:19 54.76960 38.62956 34862 ft 483 kts 149°
2026-05-06 09:19 54.71294 38.69061 34868 ft 483 kts 152°
2026-05-06 09:20 54.65497 38.74962 34863 ft 484 kts 151°
2026-05-06 09:20 54.59714 38.80951 34854 ft 485 kts 151°
2026-05-06 09:21 54.53926 38.86941 34858 ft 485 kts 151°
2026-05-06 09:21 54.48131 38.92918 34861 ft 485 kts 151°
2026-05-06 09:22 54.42340 38.98874 34861 ft 484 kts 150°
2026-05-06 09:22 54.39654 39.02337 34853 ft 485 kts 135°
2026-05-06 09:22 54.37598 39.06918 34851 ft 488 kts 118°
2026-05-06 09:23 54.35145 39.17757 34867 ft 489 kts 111°
2026-05-06 09:23 54.32601 39.28609 34867 ft 492 kts 113°
2026-05-06 09:24 54.29955 39.39453 34871 ft 495 kts 113°
2026-05-06 09:24 54.27314 39.50263 34867 ft 496 kts 113°
2026-05-06 09:25 54.24652 39.61143 34860 ft 495 kts 113°
2026-05-06 09:25 54.21988 39.71993 34863 ft 493 kts 114°
2026-05-06 09:26 54.19328 39.82780 34863 ft 492 kts 114°
2026-05-06 09:26 54.16667 39.93505 34865 ft 490 kts 114°
2026-05-06 09:27 54.14005 40.04193 34865 ft 489 kts 114°
2026-05-06 09:27 54.11418 40.14912 34876 ft 488 kts 109°
2026-05-06 09:28 54.09468 40.25989 34872 ft 488 kts 107°
2026-05-06 09:28 54.07586 40.37098 34871 ft 488 kts 107°
2026-05-06 09:29 54.05660 40.48200 34876 ft 489 kts 107°
2026-05-06 09:29 54.03713 40.59220 34876 ft 490 kts 107°
2026-05-06 09:30 54.01741 40.70304 34879 ft 490 kts 107°
2026-05-06 09:30 53.99758 40.81396 34886 ft 490 kts 107°
2026-05-06 09:31 53.97766 40.92474 34877 ft 490 kts 108°
2026-05-06 09:31 53.95766 41.03535 34875 ft 490 kts 108°
2026-05-06 09:32 53.93886 41.14666 34876 ft 490 kts 105°
2026-05-06 09:32 53.92105 41.25814 34879 ft 489 kts 105°
2026-05-06 09:33 53.90298 41.36937 34881 ft 489 kts 106°
2026-05-06 09:33 53.88459 41.48059 34878 ft 489 kts 106°
2026-05-06 09:34 53.86608 41.59162 34889 ft 490 kts 106°
2026-05-06 09:34 53.84758 41.70207 34887 ft 491 kts 106°
2026-05-06 09:35 53.82877 41.81316 34877 ft 491 kts 107°
2026-05-06 09:35 53.80965 41.92406 34881 ft 490 kts 107°
2026-05-06 09:36 53.79048 42.03453 34887 ft 489 kts 107°
2026-05-06 09:36 53.77127 42.14484 34888 ft 488 kts 107°
2026-05-06 09:37 53.75199 42.25493 34891 ft 488 kts 107°
2026-05-06 09:37 53.73274 42.36423 34902 ft 487 kts 107°
2026-05-06 09:38 53.71330 42.47389 34895 ft 487 kts 107°
2026-05-06 09:38 53.69378 42.58340 34897 ft 487 kts 107°
2026-05-06 09:39 53.67423 42.69258 34889 ft 486 kts 107°
2026-05-06 09:39 53.65646 42.80280 34892 ft 486 kts 105°
2026-05-06 09:40 53.63961 42.91307 34894 ft 485 kts 105°
2026-05-06 09:40 53.61376 43.07797 34893 ft 486 kts 105°
2026-05-06 09:41 53.59613 43.18800 34904 ft 488 kts 105°
2026-05-06 09:41 53.57833 43.29834 34897 ft 489 kts 105°
2026-05-06 09:42 53.56037 43.40890 34897 ft 489 kts 105°
2026-05-06 09:42 53.54235 43.51926 34895 ft 489 kts 105°
2026-05-06 09:43 53.52427 43.62931 34900 ft 488 kts 105°
2026-05-06 09:43 53.50615 43.73892 34898 ft 486 kts 106°
2026-05-06 09:44 53.48810 43.84749 34895 ft 485 kts 106°
2026-05-06 09:44 53.46980 43.95646 34901 ft 484 kts 106°
2026-05-06 09:45 53.45136 44.06529 34904 ft 484 kts 106°
2026-05-06 09:45 53.43288 44.17378 34903 ft 483 kts 106°
2026-05-06 09:46 53.41434 44.28205 34906 ft 482 kts 106°
2026-05-06 09:46 53.39575 44.38999 34907 ft 482 kts 106°
2026-05-06 09:47 53.37711 44.49769 34905 ft 480 kts 106°
2026-05-06 09:47 53.35856 44.60431 34911 ft 478 kts 106°
2026-05-06 09:48 53.33993 44.71183 34912 ft 483 kts 106°
2026-05-06 09:48 53.32114 44.81980 34912 ft 488 kts 107°
2026-05-06 09:49 53.30199 44.92904 34909 ft 490 kts 107°
2026-05-06 09:49 53.28273 45.03832 34902 ft 489 kts 107°
2026-05-06 09:50 53.26110 45.14596 34904 ft 487 kts 110°
2026-05-06 09:50 53.23773 45.25190 34906 ft 485 kts 110°
2026-05-06 09:51 53.21445 45.35736 34911 ft 483 kts 110°
2026-05-06 09:51 53.19135 45.46251 34913 ft 482 kts 110°
2026-05-06 09:52 53.16822 45.56754 34914 ft 482 kts 110°
2026-05-06 09:52 53.14878 45.65538 34913 ft 483 kts 110°
2026-05-06 09:53 53.12547 45.76029 34913 ft 483 kts 111°
2026-05-06 09:53 53.10207 45.86507 34921 ft 483 kts 111°
2026-05-06 09:54 53.07884 45.96974 34913 ft 483 kts 111°
2026-05-06 09:54 53.05554 46.07453 34913 ft 482 kts 111°
2026-05-06 09:55 53.03217 46.17912 34906 ft 482 kts 111°
2026-05-06 09:55 53.00869 46.28353 34913 ft 482 kts 111°
2026-05-06 09:56 52.98519 46.38762 34910 ft 482 kts 111°
2026-05-06 09:56 52.96155 46.49166 34908 ft 481 kts 111°
2026-05-06 09:57 52.93772 46.59528 34912 ft 481 kts 111°
2026-05-06 09:57 52.91376 46.69892 34909 ft 480 kts 111°
2026-05-06 09:58 52.88996 46.80152 34900 ft 480 kts 111°
2026-05-06 09:58 52.86592 46.90470 34904 ft 480 kts 111°
2026-05-06 09:59 52.84179 47.00779 34900 ft 479 kts 111°
2026-05-06 09:59 52.81760 47.11073 34904 ft 479 kts 111°
2026-05-06 10:00 52.79497 47.21457 34898 ft 479 kts 109°
2026-05-06 10:00 52.77340 47.31876 34903 ft 479 kts 109°
2026-05-06 10:01 52.75142 47.42272 34897 ft 479 kts 110°
2026-05-06 10:01 52.72915 47.52654 34896 ft 479 kts 110°
2026-05-06 10:02 52.70697 47.62940 34898 ft 479 kts 110°
2026-05-06 10:02 52.68451 47.73283 34898 ft 479 kts 110°
2026-05-06 10:03 52.66198 47.83618 34903 ft 479 kts 110°
2026-05-06 10:03 52.63941 47.93926 34899 ft 479 kts 110°
2026-05-06 10:04 52.61671 48.04252 34900 ft 479 kts 110°
2026-05-06 10:04 52.59389 48.14553 34899 ft 479 kts 110°
2026-05-06 10:05 52.57089 48.24833 34895 ft 479 kts 110°
2026-05-06 10:05 52.54781 48.35109 34900 ft 478 kts 110°
2026-05-06 10:06 52.52471 48.45355 34892 ft 478 kts 110°
2026-05-06 10:06 52.50168 48.55520 34893 ft 478 kts 110°
2026-05-06 10:07 52.47839 48.65748 34889 ft 478 kts 111°
2026-05-06 10:07 52.45500 48.75972 34889 ft 478 kts 111°
2026-05-06 10:08 52.43157 48.86170 34888 ft 478 kts 111°
2026-05-06 10:08 52.40799 48.96382 34886 ft 479 kts 111°
2026-05-06 10:09 52.38455 49.06494 34890 ft 479 kts 111°
2026-05-06 10:09 52.36084 49.16666 34893 ft 479 kts 111°
2026-05-06 10:10 52.33703 49.26842 34894 ft 479 kts 111°
2026-05-06 10:10 52.31318 49.37008 34893 ft 478 kts 111°
2026-05-06 10:11 52.28940 49.47090 34889 ft 478 kts 111°
2026-05-06 10:11 52.26529 49.57220 34891 ft 478 kts 111°
2026-05-06 10:12 52.24108 49.67340 34887 ft 478 kts 111°
2026-05-06 10:12 52.21685 49.77437 34892 ft 478 kts 111°
2026-05-06 10:13 52.19253 49.87526 34887 ft 478 kts 111°
2026-05-06 10:13 52.16818 49.97584 34891 ft 477 kts 111°
2026-05-06 10:14 52.14375 50.07625 34888 ft 477 kts 111°
2026-05-06 10:14 52.11920 50.17672 34887 ft 477 kts 111°
2026-05-06 10:15 52.09460 50.27694 34884 ft 477 kts 111°
2026-05-06 10:15 52.06995 50.37688 34885 ft 476 kts 111°
2026-05-06 10:16 52.04524 50.47666 34879 ft 476 kts 111°
2026-05-06 10:16 52.02064 50.57553 34882 ft 475 kts 112°
2026-05-06 10:17 51.99582 50.67490 34885 ft 475 kts 112°
2026-05-06 10:17 51.97089 50.77426 34875 ft 475 kts 112°
2026-05-06 10:18 51.95587 50.82145 34866 ft 472 kts 126°
2026-05-06 10:18 51.93315 50.85973 34888 ft 473 kts 142°
2026-05-06 10:18 51.90521 50.88754 34879 ft 474 kts 156°
2026-05-06 10:18 51.87379 50.90376 34885 ft 474 kts 165°
2026-05-06 10:19 51.80942 50.92891 34874 ft 477 kts 165°
2026-05-06 10:19 51.74503 50.95588 34875 ft 479 kts 164°
2026-05-06 10:20 51.68152 50.98858 34865 ft 480 kts 156°
2026-05-06 10:20 51.62257 51.03895 34864 ft 479 kts 146°
2026-05-06 10:21 51.56731 51.09884 34864 ft 479 kts 146°
2026-05-06 10:21 51.51195 51.15829 34854 ft 479 kts 146°
2026-05-06 10:22 51.45626 51.21722 34859 ft 479 kts 146°
2026-05-06 10:22 51.40095 51.27599 34856 ft 479 kts 146°
2026-05-06 10:23 51.34554 51.33532 34852 ft 480 kts 146°
2026-05-06 10:23 51.28993 51.39465 34855 ft 480 kts 146°
2026-05-06 10:24 51.23423 51.45381 34859 ft 481 kts 146°
2026-05-06 10:24 51.17858 51.51310 34855 ft 481 kts 144°
2026-05-06 10:25 51.12819 51.58340 34862 ft 482 kts 133°
2026-05-06 10:25 51.08597 51.66354 34862 ft 482 kts 129°
2026-05-06 10:26 51.04367 51.74619 34855 ft 482 kts 129°
2026-05-06 10:26 51.00150 51.82759 34854 ft 482 kts 130°
2026-05-06 10:27 50.95890 51.90907 34847 ft 481 kts 130°
2026-05-06 10:27 50.91604 51.99065 34845 ft 481 kts 130°
2026-05-06 10:28 50.87312 52.07214 34844 ft 481 kts 130°
2026-05-06 10:28 50.83028 52.15324 34843 ft 480 kts 130°
2026-05-06 10:29 50.78752 52.23430 34824 ft 479 kts 130°
2026-05-06 10:29 50.74460 52.31488 34834 ft 479 kts 131°
2026-05-06 10:30 50.70195 52.39470 34843 ft 478 kts 131°
2026-05-06 10:30 50.65913 52.47507 34833 ft 478 kts 131°
2026-05-06 10:31 50.61660 52.55522 34831 ft 477 kts 131°
2026-05-06 10:31 50.57391 52.63549 34827 ft 477 kts 131°
2026-05-06 10:32 50.53117 52.71556 34825 ft 478 kts 131°
2026-05-06 10:32 50.49620 52.78086 34820 ft 478 kts 131°
2026-05-06 10:33 50.48652 52.79890 34820 ft 478 kts 131°
2026-05-06 10:33 50.44352 52.87889 34817 ft 479 kts 132°
2026-05-06 10:34 50.40039 52.95886 34813 ft 479 kts 132°
2026-05-06 10:34 50.35728 53.03857 34809 ft 480 kts 132°
2026-05-06 10:35 50.31434 53.11776 34815 ft 480 kts 132°
2026-05-06 10:35 50.29395 53.15527 34807 ft 480 kts 132°
2026-05-06 10:36 50.25058 53.23484 34810 ft 480 kts 132°
2026-05-06 10:36 50.22256 53.28613 34810 ft 480 kts 132°
2026-05-06 10:37 50.20481 53.31858 34810 ft 480 kts 132°
2026-05-06 10:38 50.17202 53.37839 34797 ft 480 kts 132°
2026-05-06 10:38 50.12887 53.45690 34794 ft 479 kts 133°
2026-05-06 10:39 50.08544 53.53568 34794 ft 479 kts 133°
2026-05-06 10:39 50.07143 53.56103 34803 ft 479 kts 133°
2026-05-06 10:40 50.06323 53.57588 34797 ft 479 kts 133°
2026-05-06 10:40 50.03910 53.61947 34798 ft 480 kts 133°
2026-05-06 10:41 50.02521 53.64454 34800 ft 480 kts 133°
2026-05-06 10:41 49.98182 53.72269 34797 ft 480 kts 133°
2026-05-06 10:42 49.96986 53.74419 34800 ft 480 kts 133°
2026-05-06 10:42 49.93692 53.80333 34793 ft 481 kts 133°
2026-05-06 10:43 49.89632 53.87604 34793 ft 482 kts 133°
2026-05-06 10:44 49.83019 53.99383 34796 ft 483 kts 134°
2026-05-06 10:44 49.78577 54.07267 34794 ft 483 kts 134°
2026-05-06 10:45 49.74147 54.15110 34796 ft 483 kts 134°
2026-05-06 10:45 49.69750 54.22872 34792 ft 483 kts 134°
2026-05-06 10:46 49.65315 54.30679 34796 ft 483 kts 134°
2026-05-06 10:46 49.60851 54.38513 34799 ft 483 kts 134°
2026-05-06 10:47 49.56442 54.46225 34800 ft 483 kts 134°
2026-05-06 10:47 49.51997 54.53979 34796 ft 482 kts 135°
2026-05-06 10:48 49.47550 54.61712 34798 ft 482 kts 135°
2026-05-06 10:48 49.43098 54.69432 34797 ft 482 kts 135°
2026-05-06 10:49 49.38638 54.77142 34797 ft 482 kts 135°
2026-05-06 10:49 49.34171 54.84841 34797 ft 483 kts 135°
2026-05-06 10:50 49.29701 54.92525 34796 ft 483 kts 135°
2026-05-06 10:50 49.25222 55.00201 34791 ft 483 kts 135°
2026-05-06 10:51 49.20732 55.07875 34790 ft 484 kts 135°
2026-05-06 10:51 49.16233 55.15541 34793 ft 484 kts 136°
2026-05-06 10:52 49.11733 55.23176 34793 ft 484 kts 136°
2026-05-06 10:52 49.07220 55.30808 34796 ft 484 kts 136°
2026-05-06 10:53 49.02692 55.38448 34794 ft 485 kts 136°
2026-05-06 10:53 48.98168 55.46061 34796 ft 485 kts 136°
2026-05-06 10:54 48.93638 55.53661 34798 ft 485 kts 136°
2026-05-06 10:54 48.89108 55.61244 34799 ft 485 kts 136°
2026-05-06 10:55 48.84584 55.68790 34808 ft 485 kts 136°
2026-05-06 10:55 48.80019 55.76347 34804 ft 485 kts 137°
2026-05-06 10:56 48.75443 55.83893 34807 ft 486 kts 137°
2026-05-06 10:56 48.70863 55.91437 34818 ft 487 kts 137°
2026-05-06 10:57 48.66272 55.98982 34819 ft 487 kts 137°
2026-05-06 10:57 48.61682 56.06528 34819 ft 487 kts 137°
2026-05-06 10:58 48.57115 56.14023 34819 ft 488 kts 137°
2026-05-06 10:58 48.52540 56.21509 34823 ft 478 kts 139°
2026-05-06 10:59 48.48059 56.28816 34818 ft 473 kts 139°
2026-05-06 10:59 48.43580 56.36094 34822 ft 473 kts 139°
2026-05-06 11:00 48.39098 56.43365 34825 ft 474 kts 139°
2026-05-06 11:00 48.34602 56.50640 34825 ft 475 kts 139°
2026-05-06 11:01 48.30083 56.57923 34841 ft 476 kts 139°
2026-05-06 11:01 48.25587 56.65150 34843 ft 477 kts 139°
2026-05-06 11:02 48.21057 56.72417 34840 ft 477 kts 139°
2026-05-06 11:02 48.18100 56.77150 34834 ft 477 kts 140°
2026-05-06 11:03 48.13563 56.84396 34839 ft 477 kts 140°
2026-05-06 11:03 48.09023 56.91627 34838 ft 476 kts 140°
2026-05-06 11:04 48.04481 56.98840 34840 ft 476 kts 140°
2026-05-06 11:04 47.99941 57.06030 34837 ft 475 kts 140°
2026-05-06 11:05 47.95430 57.13154 34845 ft 475 kts 141°
2026-05-06 11:05 47.90893 57.20300 34851 ft 475 kts 141°
2026-05-06 11:06 47.86349 57.27437 34849 ft 475 kts 141°
2026-05-06 11:06 47.81799 57.34565 34851 ft 475 kts 141°
2026-05-06 11:07 47.77236 57.41694 34858 ft 476 kts 141°
2026-05-06 11:07 47.72667 57.48814 34873 ft 476 kts 141°
2026-05-06 11:08 47.68090 57.55929 34865 ft 476 kts 142°
2026-05-06 11:08 47.63509 57.63029 34863 ft 476 kts 142°
2026-05-06 11:09 47.58926 57.70095 34861 ft 475 kts 142°
2026-05-06 11:09 47.54340 57.77139 34866 ft 475 kts 142°
2026-05-06 11:10 47.49758 57.84161 34863 ft 474 kts 142°
2026-05-06 11:10 47.45180 57.91161 34866 ft 473 kts 142°
2026-05-06 11:11 47.40599 57.98147 34871 ft 473 kts 142°
2026-05-06 11:11 47.36014 58.05124 34866 ft 473 kts 142°
2026-05-06 11:12 47.31424 58.12089 34867 ft 474 kts 142°
2026-05-06 11:12 47.26826 58.19047 34868 ft 474 kts 142°
2026-05-06 11:13 47.22210 58.26018 34874 ft 475 kts 142°
2026-05-06 11:13 47.17612 58.32948 34870 ft 476 kts 142°
2026-05-06 11:14 47.12981 58.39911 34871 ft 477 kts 141°
2026-05-06 11:14 47.08337 58.46876 34870 ft 477 kts 141°
2026-05-06 11:15 47.04448 58.52695 34878 ft 477 kts 141°
2026-05-06 11:15 46.99800 58.59632 34876 ft 476 kts 141°
2026-05-06 11:16 46.95150 58.66551 34881 ft 476 kts 141°
2026-05-06 11:16 46.90508 58.73443 34882 ft 475 kts 141°
2026-05-06 11:17 46.85863 58.80319 34880 ft 474 kts 141°
2026-05-06 11:17 46.81224 58.87170 34882 ft 474 kts 141°
2026-05-06 11:18 46.76582 58.94006 34884 ft 473 kts 141°
2026-05-06 11:18 46.71948 59.00814 34882 ft 473 kts 141°
2026-05-06 11:19 46.67308 59.07612 34885 ft 472 kts 141°
2026-05-06 11:19 46.62705 59.14338 34889 ft 472 kts 141°
2026-05-06 11:20 46.58059 59.21111 34901 ft 473 kts 141°
2026-05-06 11:20 46.53411 59.27869 34897 ft 473 kts 141°
2026-05-06 11:21 46.48753 59.34623 34898 ft 473 kts 141°
2026-05-06 11:21 46.44082 59.41380 34898 ft 473 kts 141°
2026-05-06 11:22 46.39447 59.48069 34894 ft 473 kts 142°
2026-05-06 11:22 46.34781 59.54785 34897 ft 473 kts 142°
2026-05-06 11:23 46.30106 59.61497 34897 ft 474 kts 142°
2026-05-06 11:23 46.25417 59.68215 34900 ft 474 kts 142°
2026-05-06 11:24 46.20703 59.74881 34898 ft 473 kts 143°
2026-05-06 11:24 46.15855 59.81298 34899 ft 473 kts 144°
2026-05-06 11:25 46.10973 59.87661 34897 ft 473 kts 144°
2026-05-06 11:25 46.06104 59.94044 34893 ft 473 kts 144°
2026-05-06 11:26 46.01237 60.00444 34895 ft 473 kts 144°
2026-05-06 11:26 45.96420 60.06771 34891 ft 473 kts 144°
2026-05-06 11:27 45.91585 60.13105 34887 ft 473 kts 144°
2026-05-06 11:27 45.86709 60.19474 34902 ft 474 kts 144°
2026-05-06 11:28 45.81829 60.25831 34898 ft 474 kts 144°
2026-05-06 11:28 45.76941 60.32184 34899 ft 475 kts 144°
2026-05-06 11:29 45.72043 60.38535 34895 ft 475 kts 144°
2026-05-06 11:29 45.67134 60.44883 34890 ft 476 kts 144°
2026-05-06 11:30 45.62217 60.51228 34893 ft 477 kts 144°
2026-05-06 11:30 45.57283 60.57578 34893 ft 477 kts 144°
2026-05-06 11:31 45.52343 60.63922 34892 ft 478 kts 144°
2026-05-06 11:31 45.47393 60.70264 34892 ft 478 kts 144°
2026-05-06 11:32 45.42296 60.76282 34887 ft 472 kts 151°
2026-05-06 11:32 45.36646 60.80865 34890 ft 464 kts 160°
2026-05-06 11:33 45.30810 60.84815 34880 ft 465 kts 160°
2026-05-06 11:33 45.25004 60.88755 34881 ft 465 kts 160°
2026-05-06 11:34 45.19168 60.92745 34879 ft 465 kts 159°
2026-05-06 11:34 45.13341 60.96736 34876 ft 465 kts 159°
2026-05-06 11:35 45.07515 61.00719 34875 ft 465 kts 159°
2026-05-06 11:35 45.01689 61.04693 34876 ft 465 kts 159°
2026-05-06 11:36 44.95853 61.08663 34876 ft 466 kts 159°
2026-05-06 11:36 44.90044 61.12605 34874 ft 466 kts 159°
2026-05-06 11:37 44.84187 61.16571 34875 ft 467 kts 159°
2026-05-06 11:37 44.78315 61.20539 34872 ft 468 kts 159°
2026-05-06 11:38 44.72430 61.24506 34874 ft 469 kts 159°
2026-05-06 11:38 44.66528 61.28476 34874 ft 470 kts 159°
2026-05-06 11:39 44.60620 61.32441 34871 ft 471 kts 159°
2026-05-06 11:39 44.54710 61.36399 34868 ft 471 kts 159°
2026-05-06 11:40 44.48788 61.40355 34870 ft 471 kts 160°
2026-05-06 11:40 44.42871 61.44300 34872 ft 471 kts 160°
2026-05-06 11:41 44.36950 61.48238 34867 ft 471 kts 160°
2026-05-06 11:41 44.31034 61.52164 34869 ft 471 kts 160°
2026-05-06 11:42 44.25115 61.56083 34880 ft 471 kts 160°
2026-05-06 11:42 44.19227 61.59975 34858 ft 471 kts 160°
2026-05-06 11:43 44.13306 61.63878 34875 ft 471 kts 160°
2026-05-06 11:43 44.07375 61.67787 34869 ft 471 kts 160°
2026-05-06 11:44 43.98479 61.73638 34874 ft 472 kts 160°
2026-05-06 11:44 43.92537 61.77536 34867 ft 472 kts 160°
2026-05-06 11:45 43.86591 61.81428 34864 ft 473 kts 160°
2026-05-06 11:45 43.80679 61.85289 34865 ft 473 kts 160°
2026-05-06 11:46 43.74718 61.89173 34865 ft 473 kts 160°
2026-05-06 11:46 43.68754 61.93051 34865 ft 473 kts 160°
2026-05-06 11:47 43.62789 61.96921 34862 ft 473 kts 160°
2026-05-06 11:47 43.56827 62.00781 34860 ft 473 kts 160°
2026-05-06 11:48 43.50900 62.04611 34863 ft 473 kts 160°
2026-05-06 11:48 43.44981 62.08641 34862 ft 477 kts 155°
2026-05-06 11:49 43.39423 62.13754 34862 ft 481 kts 151°
2026-05-06 11:49 43.33920 62.18992 34863 ft 481 kts 151°
2026-05-06 11:50 43.28393 62.24201 34868 ft 481 kts 151°
2026-05-06 11:50 43.22886 62.29344 34862 ft 481 kts 152°
2026-05-06 11:51 43.17350 62.34492 34857 ft 481 kts 152°
2026-05-06 11:51 43.11809 62.39635 34871 ft 481 kts 152°
2026-05-06 11:52 43.06273 62.44765 34860 ft 480 kts 151°
2026-05-06 11:52 43.00745 62.49876 34865 ft 479 kts 151°
2026-05-06 11:53 42.95224 62.54969 34868 ft 479 kts 151°
2026-05-06 11:53 42.89695 62.60058 34862 ft 479 kts 152°
2026-05-06 11:54 42.84168 62.65134 34865 ft 478 kts 151°
2026-05-06 11:54 42.78651 62.70189 34866 ft 478 kts 151°
2026-05-06 11:55 42.73118 62.75249 34870 ft 479 kts 151°
2026-05-06 11:55 42.67579 62.80302 34871 ft 479 kts 151°
2026-05-06 11:56 42.62034 62.85350 34876 ft 480 kts 151°
2026-05-06 11:56 42.56519 62.90362 34877 ft 480 kts 151°
2026-05-06 11:57 42.50956 62.95405 34877 ft 481 kts 151°
2026-05-06 11:57 42.45389 63.00443 34873 ft 482 kts 151°
2026-05-06 11:58 42.40749 63.04632 34875 ft 482 kts 151°
2026-05-06 11:58 42.34222 63.10509 34871 ft 482 kts 151°
2026-05-06 11:59 42.29580 63.14680 34874 ft 482 kts 151°
2026-05-06 11:59 42.23980 63.19705 34873 ft 483 kts 151°
2026-05-06 12:00 42.18387 63.24714 34872 ft 483 kts 151°
2026-05-06 12:00 42.12778 63.29727 34873 ft 483 kts 151°
2026-05-06 12:01 42.07168 63.34728 34872 ft 484 kts 151°
2026-05-06 12:01 42.01582 63.39698 34872 ft 484 kts 151°
2026-05-06 12:02 41.95954 63.44695 34868 ft 485 kts 151°
2026-05-06 12:02 41.90315 63.49691 34868 ft 485 kts 151°
2026-05-06 12:03 41.84668 63.54683 34867 ft 486 kts 151°
2026-05-06 12:03 41.79016 63.59669 34875 ft 487 kts 151°
2026-05-06 12:04 41.73347 63.64659 34878 ft 487 kts 151°
2026-05-06 12:04 41.67676 63.69641 34874 ft 488 kts 151°
2026-05-06 12:05 41.61991 63.74623 34883 ft 488 kts 151°
2026-05-06 12:05 41.56303 63.79600 34882 ft 489 kts 151°
2026-05-06 12:06 41.50637 63.84545 34882 ft 489 kts 151°
2026-05-06 12:06 41.44936 63.89511 34900 ft 490 kts 151°
2026-05-06 12:07 41.39224 63.94477 34899 ft 490 kts 151°
2026-05-06 12:07 41.33512 63.99428 34880 ft 491 kts 151°
2026-05-06 12:08 41.27770 64.04395 34896 ft 491 kts 151°
2026-05-06 12:08 41.22070 64.09318 34892 ft 492 kts 151°
2026-05-06 12:09 41.16330 64.14265 34894 ft 492 kts 151°
2026-05-06 12:09 41.10574 64.19217 34894 ft 493 kts 151°
2026-05-06 12:10 41.04817 64.24159 34889 ft 493 kts 151°
2026-05-06 12:10 40.99043 64.29105 34895 ft 494 kts 151°
2026-05-06 12:11 40.93270 64.34039 34882 ft 494 kts 151°
2026-05-06 12:11 40.87486 64.38973 34887 ft 494 kts 151°
2026-05-06 12:12 40.81737 64.43866 34883 ft 494 kts 151°
2026-05-06 12:12 40.75948 64.48783 34890 ft 494 kts 151°
2026-05-06 12:13 40.70158 64.53690 34890 ft 495 kts 151°
2026-05-06 12:13 40.64364 64.58591 34888 ft 495 kts 151°
2026-05-06 12:14 40.58561 64.63488 34889 ft 495 kts 151°
2026-05-06 12:14 40.52754 64.68379 34891 ft 496 kts 151°
2026-05-06 12:15 40.46941 64.73265 34897 ft 496 kts 151°
2026-05-06 12:15 40.41162 64.78112 34897 ft 496 kts 151°
2026-05-06 12:16 40.35339 64.82986 34902 ft 497 kts 151°
2026-05-06 12:16 40.29506 64.87858 34912 ft 497 kts 151°
2026-05-06 12:17 40.23667 64.92725 34921 ft 498 kts 151°
2026-05-06 12:17 40.17816 64.97592 34935 ft 499 kts 151°
2026-05-06 12:18 40.11953 65.02459 34933 ft 499 kts 151°
2026-05-06 12:18 40.06084 65.07321 34937 ft 500 kts 151°
2026-05-06 12:19 40.00213 65.12174 34937 ft 500 kts 151°
2026-05-06 12:19 39.94338 65.17020 34932 ft 500 kts 151°
2026-05-06 12:20 39.88448 65.21869 34928 ft 500 kts 151°
2026-05-06 12:20 39.82561 65.26706 34923 ft 500 kts 151°
2026-05-06 12:21 39.76669 65.31537 34916 ft 500 kts 151°
2026-05-06 12:21 39.70777 65.36357 34915 ft 500 kts 151°
2026-05-06 12:22 39.64890 65.41165 34913 ft 500 kts 151°
2026-05-06 12:22 39.58988 65.45974 34916 ft 500 kts 151°
2026-05-06 12:23 39.53082 65.50777 34922 ft 501 kts 151°
2026-05-06 12:23 39.50122 65.53179 35099 ft 503 kts 151°
2026-05-06 12:23 39.47155 65.55586 35413 ft 502 kts 151°
2026-05-06 12:24 39.44232 65.57955 35757 ft 501 kts 151°
2026-05-06 12:24 39.41284 65.60343 36087 ft 499 kts 151°
2026-05-06 12:24 39.38337 65.62727 36394 ft 498 kts 151°
2026-05-06 12:24 39.35388 65.65109 36662 ft 499 kts 151°
2026-05-06 12:25 39.32448 65.67481 36832 ft 500 kts 151°
2026-05-06 12:25 39.29483 65.69870 36875 ft 502 kts 151°
2026-05-06 12:25 39.23587 65.74616 36904 ft 501 kts 151°
2026-05-06 12:26 39.17658 65.79382 36903 ft 498 kts 151°
2026-05-06 12:26 39.11812 65.84069 36917 ft 497 kts 151°
2026-05-06 12:27 39.05937 65.88770 36918 ft 497 kts 151°
2026-05-06 12:27 39.00052 65.93469 36915 ft 498 kts 151°
2026-05-06 12:28 38.94150 65.98172 36911 ft 499 kts 151°
2026-05-06 12:28 38.88232 66.02880 36916 ft 501 kts 151°
2026-05-06 12:29 38.82303 66.07588 36914 ft 502 kts 151°
2026-05-06 12:29 38.76352 66.12304 36917 ft 503 kts 151°
2026-05-06 12:30 38.70389 66.17020 36919 ft 504 kts 151°
2026-05-06 12:30 38.64417 66.21736 36924 ft 505 kts 151°
2026-05-06 12:31 38.58446 66.26470 36930 ft 505 kts 150°
2026-05-06 12:31 38.52507 66.31272 36940 ft 505 kts 150°
2026-05-06 12:32 38.46565 66.36082 36948 ft 505 kts 150°
2026-05-06 12:32 38.40619 66.40871 36959 ft 505 kts 150°
2026-05-06 12:33 38.34716 66.45607 36966 ft 505 kts 150°
2026-05-06 12:33 38.28720 66.50410 36978 ft 505 kts 150°
2026-05-06 12:34 38.22803 66.55140 36983 ft 506 kts 150°
2026-05-06 12:34 38.16838 66.59899 36998 ft 506 kts 150°
2026-05-06 12:35 38.10868 66.64655 37004 ft 506 kts 150°
2026-05-06 12:35 38.04896 66.69403 36998 ft 507 kts 150°
2026-05-06 12:36 37.98925 66.74127 37003 ft 507 kts 150°
2026-05-06 12:36 37.92917 66.78805 36984 ft 507 kts 150°
2026-05-06 12:37 37.86900 66.83469 36973 ft 507 kts 150°
2026-05-06 12:37 37.80918 66.88107 36964 ft 507 kts 150°
2026-05-06 12:38 37.74900 66.92771 36948 ft 508 kts 150°
2026-05-06 12:38 37.68864 66.97440 36923 ft 509 kts 150°
2026-05-06 12:39 37.62808 67.02115 36921 ft 510 kts 150°
2026-05-06 12:39 37.56752 67.06780 36910 ft 510 kts 150°
2026-05-06 12:40 37.50676 67.11452 36890 ft 511 kts 150°
2026-05-06 12:40 37.44606 67.16111 36891 ft 511 kts 150°
2026-05-06 12:41 37.39562 67.19975 36888 ft 511 kts 150°
2026-05-06 12:41 37.32488 67.25385 36882 ft 511 kts 150°
2026-05-06 12:42 37.27423 67.29251 36885 ft 512 kts 150°
2026-05-06 12:42 37.21335 67.33891 36883 ft 512 kts 150°
2026-05-06 12:43 37.15165 67.38358 36888 ft 511 kts 153°
2026-05-06 12:43 37.08910 67.42627 36889 ft 512 kts 153°
2026-05-06 12:44 37.02665 67.46909 36892 ft 512 kts 153°
2026-05-06 12:44 36.96422 67.51230 36901 ft 513 kts 153°
2026-05-06 12:45 36.90181 67.55555 36910 ft 513 kts 153°
2026-05-06 12:46 36.80858 67.61993 36925 ft 513 kts 153°
2026-05-06 12:46 36.74550 67.66338 36939 ft 514 kts 153°
2026-05-06 12:47 36.68284 67.70649 36949 ft 514 kts 153°
2026-05-06 12:47 36.62019 67.74966 36951 ft 515 kts 153°
2026-05-06 12:48 36.55746 67.79285 36964 ft 514 kts 153°
2026-05-06 12:48 36.49516 67.83566 36973 ft 515 kts 153°
2026-05-06 12:49 36.43204 67.87894 36983 ft 515 kts 153°
2026-05-06 12:49 36.36968 67.92161 36995 ft 515 kts 153°
2026-05-06 12:50 36.30675 67.96460 36993 ft 516 kts 153°
2026-05-06 12:50 36.24379 68.00752 37010 ft 516 kts 153°
2026-05-06 12:51 36.18071 68.05044 37016 ft 516 kts 153°
2026-05-06 12:51 36.11766 68.09327 37032 ft 517 kts 153°
2026-05-06 12:52 36.05436 68.13619 37031 ft 518 kts 153°
2026-05-06 12:52 35.99119 68.17894 37047 ft 518 kts 153°
2026-05-06 12:53 35.92788 68.22171 37056 ft 519 kts 153°
2026-05-06 12:53 35.86446 68.26448 37053 ft 519 kts 153°
2026-05-06 12:54 35.80095 68.30722 37049 ft 520 kts 153°
2026-05-06 12:54 35.73751 68.34984 37045 ft 519 kts 153°
2026-05-06 12:55 35.67399 68.39245 37058 ft 519 kts 153°
2026-05-06 12:55 35.61088 68.43471 37061 ft 519 kts 153°
2026-05-06 12:56 35.54739 68.47696 37082 ft 519 kts 153°
2026-05-06 12:56 35.48378 68.51900 37082 ft 519 kts 154°
2026-05-06 12:57 35.42022 68.56096 37100 ft 519 kts 154°
2026-05-06 12:57 35.35663 68.60290 37112 ft 519 kts 153°
2026-05-06 12:58 35.29294 68.64484 37111 ft 519 kts 153°
2026-05-06 12:58 35.22934 68.68666 37107 ft 519 kts 153°
2026-05-06 12:59 35.16563 68.72848 37081 ft 519 kts 153°
2026-05-06 12:59 35.10237 68.76993 37064 ft 518 kts 153°
2026-05-06 13:00 35.03891 68.81140 37043 ft 516 kts 153°
2026-05-06 13:00 34.97541 68.85287 37020 ft 520 kts 153°
2026-05-06 13:01 34.91098 68.89485 36981 ft 527 kts 153°
2026-05-06 13:01 34.84624 68.93696 36956 ft 528 kts 153°
2026-05-06 13:02 34.78200 68.97869 36913 ft 523 kts 153°
2026-05-06 13:02 34.71806 69.02014 36899 ft 520 kts 153°
2026-05-06 13:03 34.65363 69.06180 36905 ft 527 kts 153°
2026-05-06 13:03 34.58839 69.10396 36907 ft 534 kts 153°
2026-05-06 13:04 34.52745 69.15502 36885 ft 533 kts 135°
2026-05-06 13:04 34.48292 69.22499 36865 ft 523 kts 115°
2026-05-06 13:05 34.45040 69.30364 36871 ft 523 kts 114°
2026-05-06 13:05 34.41789 69.38268 36864 ft 524 kts 114°
2026-05-06 13:06 34.38465 69.46129 36880 ft 526 kts 115°
2026-05-06 13:06 34.35085 69.54014 36883 ft 527 kts 115°
2026-05-06 13:07 34.31695 69.61906 36885 ft 528 kts 115°
2026-05-06 13:07 34.30572 69.64519 36880 ft 529 kts 115°